ゲーレルス第1彗星

90P/Gehrels 1 (2017)

English version
Home page
Updated on October 9, 2017

---------------------------------------------------------------------

・ プロフィール

・ 写真集

・ 軌道要素

Epoch 2017 June 16.0 TT = JDT 2457920.5
T 2017 June 19.26932 TT                                 MPCW
q   2.9749535            (2000.0)            P               Q
n   0.06593428     Peri.   29.26595     +0.73865282     -0.67299333
a   6.0682278      Node    13.25146     +0.58134120     +0.60718058
e   0.5097492      Incl.    9.63521     +0.34122488     +0.42238811
P  14.95
From 218 observations 1972 Oct. 11-2016 Nov. 2, mean residual 0".8.
     Nongravitational parameters Y1 = -0.38, Y2 = -0.0111.

・ 星図

・ 光度変化

        m1 = 4.5 + 5 logΔ + 22 log r(t - 130)

---------------------------------------------------------------------

軌道要素はM.P.E.C. 2016-V116に掲載されたものです。
星図はステラナビゲータ Ver.10 (アストロアーツ) で作成したものです。
光度グラフはComet for Windowsで作成したものです。

---------------------------------------------------------------------

Copyright(C) Seiichi Yoshida (comet@aerith.net). All rights reserved.